Tracking 25707 objects as of 30-Jun-2022
HD Live streaming from Space Station
objects crossing your sky now

STARLINK-2623

Track STARLINK-2623 now!
10-day predictions
STARLINK-2623 is classified as:


NORAD ID: 48368
Int'l Code: 2021-038R
Perigee: 553.4 km
Apogee: 555.4 km
Inclination: 53.1 °
Period: 95.6 minutes
Semi major axis: 6925 km
RCS: Unknown
Launch date: May 4, 2021
Source: United States (US)
Launch site: AIR FORCE EASTERN TEST RANGE (AFETR)
aabbcc
Your satellite tracking list
Your tracking list is empty




NASA's NSSDC Master Catalog

Two Line Element Set (TLE):
1 48368U 21038R   22180.58625111 -.00000793  00000-0 -34392-4 0  9991
2 48368  53.0559 288.2603 0001492  58.1920 301.9214 15.06384464 63828
Source of the keplerian elements: AFSPC